Miscellaneous Local Product
Issued by NWS North Platte, NE

Home | Current Version | Previous Version | Graphics & Text | Print | Product List | Glossary On
Versions: 1 2 3 4 5 6 7 8 9 10 11 12 13 14 15 16 17 18 19 20 21 22 23 24 25 26 27 28 29 30 31 32 33 34 35 36 37 38 39 40 41 42 43 44 45 46 47 48 49 50
000
AXUS43 KLBF 071710
MISLBF


WESTERN AND NORTH CENTRAL NEBRASKA HOURLY WEATHER ROUNDUP
NATIONAL WEATHER SERVICE NORTH PLATTE NE
1100 AM CST WED DEC 07 2016

NOTE: "FAIR" INDICATES FEW OR NO CLOUDS BELOW 12,000 FEET WITH NO
SIGNIFICANT WEATHER AND/OR OBSTRUCTIONS TO VISIBILITY.

NOTE: STATIONS NOT REPORTING VARIABLES SUCH AS SKY/WEATHER OR
PRESSURE ARE PROVIDED BY RAWS AND APRS NETWORKS AND ARE NOT UNDER
NATIONAL WEATHER SERVICE QUALITY CONTROL.

...OBSERVATIONS IN AND NEAR THE EASTERN PANHANDLE OF NEBRASKA...

CITY           SKY/WX    TMP DP  RH WIND       PRES   REMARKS
PINE RIDGE     CLOUDY     8   0  69 CALM      30.33R
CHADRON        CLOUDY     8  -3  61 NW20G28   30.35R WCI -11
ALLIANCE       CLOUDY     9   1  70 N9        30.27R WCI  -4
SIDNEY         LGT SNOW   9   2  73 N17       30.26R WCI  -9
CRESCENT LAKE    N/A      9   3  77 NW12        N/A  WCI  -6
$$

...OBSERVATIONS IN NORTHERN NEBRASKA AND FAR SOUTHERN SOUTH DAKOTA...

CITY           SKY/WX    TMP DP  RH WIND       PRES   REMARKS
WINNER         FAIR      11  -1  58 NW26      30.34S WCI -10
VALENTINE      CLOUDY     8  -4  58 NW18G31   30.33R WCI -11
THEDFORD       CLOUDY    15   1  53 N23G29    30.31S WCI  -4
AINSWORTH      CLOUDY     9  -1  62 NW16G23   30.32R WCI  -8
O`NEILL        CLOUDY    13   1  59 NW17G25   30.32R WCI  -4
ORD            CLOUDY    16  -1  47 NW16      30.33R WCI   1
BROKEN BOW     CLOUDY    16   2  54 NW20      30.32R WCI  -1
VALENTINE NWR    N/A      9  -4  55 NW16G24     N/A  WCI  -8
BUTTE            N/A      8   0  69 W20G26      N/A  WCI -11
HALSEY           N/A     12  -4  48 NW10G18     N/A  WCI  -1
CHAMBERS         N/A     13   0  55 SW3G12      N/A
EWING            N/A     14   4  64 NW12        N/A  WCI   0
$$

...OBSERVATIONS IN SOUTHWEST NEBRASKA AND FAR NORTHEAST COLORADO...

CITY           SKY/WX    TMP DP  RH WIND       PRES   REMARKS
HOLYOKE        CLOUDY    19  10  68 N10       30.29R WCI   8
IMPERIAL       LGT SNOW  13   7  77 N15       30.32R VSB 1   WCI  -3
OGALLALA       LGT SNOW  16   9  74 N9        30.31R WCI   5
NORTH PLATTE   LGT SNOW  14   6  70 N13       30.34R WCI   0
MCCOOK         LGT SNOW  15   9  76 N14       30.34R WCI   0
LEXINGTON      CLOUDY    18   6  58 N12       30.34R WCI   6
STAPLETON        N/A     14   1  57 CALM        N/A
GOTHENBURG       N/A     16   8  71 NW12        N/A  WCI   3
CALLAWAY         N/A     13   4  66 N16         N/A  WCI  -3
$$

...OBSERVATIONS IN CENTRAL LINCOLN COUNTY AREA...

CITY           SKY/WX    TMP DP  RH WIND       PRES   REMARKS
N.P. AIRPORT   LGT SNOW  14   6  70 N13       30.34R WCI   0
N.P. DOWNTOWN    N/A     11   6  81 N6          N/A  WCI   2
N.P. SOUTHEAST   N/A     11   6  78 N6G13       N/A  WCI   2
N.P. HILLCREST   N/A     12   7  79 N13G20      N/A  WCI  -3
$$

...SOME OBSERVATIONS FROM AROUND THE REGION...

CITY           SKY/WX    TMP DP  RH WIND       PRES   REMARKS
LARAMIE        FLURRIES  -1  -7  75 NW6       30.01R WCI -13
CHEYENNE       CLOUDY     2  -6  69 N9        30.12R HAZE    WCI -13
DENVER         LGT SNOW   8   2  76 N10       30.18R WCI  -6
AKRON          LGT SNOW  10   4  76 N14       30.22R WCI  -6
SCOTTSBLUFF    LGT SNOW  10   1  67 NW16      30.30R WCI  -7
RAPID CITY     CLOUDY     9  -2  61 NW28G33   30.33R WCI -13
BISMARCK       CLOUDY     5  -1  76 W23G38    30.27R WCI -17
PIERRE         CLOUDY    10   2  69 NW23G36   30.33R WCI -10
SIOUX FALLS    CLOUDY    15   6  67 NW21G33   30.22R WCI  -2
OMAHA          CLOUDY    19   7  59 W13       30.33S WCI   6
GRAND ISLAND   CLOUDY    18   4  54 NW13      30.35R WCI   5
KANSAS CITY    LGT SNOW  25  19  78 N9        30.32R WCI  15
WICHITA        CLOUDY    34  16  47 NE16      30.27R WCI  24
OKLAHOMA CITY  CLOUDY    38  22  52 NE7       30.16R WCI  33
DALLAS         CLOUDY    48  39  71 CALM      30.11F
AMARILLO       CLOUDY    31  27  85 W5        30.08R WCI  26
DODGE CITY     FLURRIES  24  19  81 NE16      30.22R WCI  11
HAYS           LGT SNOW  21  17  84 N15       30.33R FOG     WCI   8
GOODLAND       LGT SNOW  13   8  81 NE12      30.25R WCI  -1
$$




USA.gov is the U.S. government's official web portal to all federal, state and local government web resources and services.